^^
Saratoga-Weather Station Historical Data
Daily Summary for July 13, 2020 Units:  Metric    English   Both
Daily Weekly Monthly Yearly Custom
  High: Low: Average:
Temperature: 21.1 °C 14.4 °C 16.2 °C
Dew Point: 10.9 °C 8.1 °C 8.8 °C
Humidity: 69% 51% 62%
Wind Speed: 6.4km/h 0km/h 1.1km/h
Wind Gust: 11.3km/h - -
Wind- - SSW
Pressure: 1023.0 hPa 1021.7 hPa -
Precipitation: 0.0 mm    
Historical Graphs
 
 
Tabular Data for July 13, 2020
Time Temperature Dew Point Pressure Wind Wind Speed Wind Gust Humidity Rainfall Rate (Hourly) solar
00:01 17.2 °C 8.6 °C 1022.7 hPa ESE 3.2 km/h 3.2 km/h 57% 0.0 mm 0 W/m2
00:06 17.1 °C 8.5 °C 1022.7 hPa ESE 1.4 km/h 1.6 km/h 57% 0.0 mm 0 W/m2
00:11 16.9 °C 8.6 °C 1022.7 hPa ESE 1.4 km/h 3.2 km/h 58% 0.0 mm 0 W/m2
00:16 16.8 °C 8.5 °C 1022.7 hPa Calm     58% 0.0 mm 0 W/m2
00:21 16.7 °C 8.4 °C 1022.7 hPa SE 1.4 km/h 3.2 km/h 58% 0.0 mm 0 W/m2
00:26 16.7 °C 8.6 °C 1022.7 hPa Calm   1.6 km/h 59% 0.0 mm 0 W/m2
00:31 16.7 °C 8.6 °C 1022.7 hPa Calm     59% 0.0 mm 0 W/m2
00:36 16.5 °C 8.5 °C 1022.7 hPa Calm   1.6 km/h 59% 0.0 mm 0 W/m2
00:41 16.4 °C 8.6 °C 1022.7 hPa SSW 1.4 km/h 3.2 km/h 60% 0.0 mm 0 W/m2
00:46 16.3 °C 8.5 °C 1022.7 hPa SSW 1.4 km/h 1.6 km/h 60% 0.0 mm 0 W/m2
00:51 16.1 °C 8.3 °C 1022.7 hPa WSW 3.2 km/h 3.2 km/h 60% 0.0 mm 0 W/m2
00:56 16.1 °C 8.6 °C 1023.0 hPa WSW 1.4 km/h 3.2 km/h 61% 0.0 mm 0 W/m2
01:01 16.1 °C 8.3 °C 1022.7 hPa Calm   3.2 km/h 60% 0.0 mm 0 W/m2
01:06 16.1 °C 8.6 °C 1023.0 hPa Calm   3.2 km/h 61% 0.0 mm 0 W/m2
01:11 16 °C 8.5 °C 1023.0 hPa Calm   1.6 km/h 61% 0.0 mm 0 W/m2
01:16 15.9 °C 8.4 °C 1023.0 hPa West 1.4 km/h 1.6 km/h 61% 0.0 mm 0 W/m2
01:21 15.9 °C 8.4 °C 1023.0 hPa Calm   6.4 km/h 61% 0.0 mm 0 W/m2
01:26 15.8 °C 8.3 °C 1023.0 hPa Calm   1.6 km/h 61% 0.0 mm 0 W/m2
01:31 15.9 °C 8.4 °C 1023.0 hPa Calm   4.8 km/h 61% 0.0 mm 0 W/m2
01:36 15.9 °C 8.1 °C 1022.7 hPa North 4.7 km/h 9.7 km/h 60% 0.0 mm 0 W/m2
01:41 16.2 °C 8.2 °C 1023.0 hPa WSW 1.4 km/h 11.3 km/h 59% 0.0 mm 0 W/m2
01:47 16.3 °C 8.3 °C 1022.7 hPa NNW 1.4 km/h 4.8 km/h 59% 0.0 mm 0 W/m2
01:52 16.3 °C 8.5 °C 1023.0 hPa WNW 1.4 km/h 11.3 km/h 60% 0.0 mm 0 W/m2
01:57 16.2 °C 8.4 °C 1022.7 hPa WNW 1.4 km/h 1.6 km/h 60% 0.0 mm 0 W/m2
02:02 16 °C 8.5 °C 1022.7 hPa Calm   1.6 km/h 61% 0.0 mm 0 W/m2
02:07 15.8 °C 8.3 °C 1022.7 hPa Calm   3.2 km/h 61% 0.0 mm 0 W/m2
02:12 15.8 °C 8.3 °C 1022.7 hPa Calm   3.2 km/h 61% 0.0 mm 0 W/m2
02:17 15.9 °C 8.4 °C 1022.7 hPa West 1.4 km/h 4.8 km/h 61% 0.0 mm 0 W/m2
02:22 16 °C 8.2 °C 1022.7 hPa Calm   1.6 km/h 60% 0.0 mm 0 W/m2
02:27 15.9 °C 8.6 °C 1022.7 hPa NW 1.4 km/h 1.6 km/h 62% 0.0 mm 0 W/m2
02:32 15.8 °C 8.5 °C 1022.7 hPa WSW 3.2 km/h 3.2 km/h 62% 0.0 mm 0 W/m2
02:37 15.7 °C 8.4 °C 1022.7 hPa Calm   3.2 km/h 62% 0.0 mm 0 W/m2
02:42 15.7 °C 8.4 °C 1022.7 hPa West 4.7 km/h 4.8 km/h 62% 0.0 mm 0 W/m2
02:47 15.7 °C 8.7 °C 1022.7 hPa WNW 1.4 km/h 3.2 km/h 63% 0.0 mm 0 W/m2
02:52 15.6 °C 8.6 °C 1022.7 hPa WNW 1.4 km/h 3.2 km/h 63% 0.0 mm 0 W/m2
02:58 15.5 °C 8.5 °C 1022.7 hPa Calm   1.6 km/h 63% 0.0 mm 0 W/m2
03:03 15.3 °C 8.5 °C 1022.7 hPa Calm     64% 0.0 mm 0 W/m2
03:08 15.2 °C 8.4 °C 1022.4 hPa West 1.4 km/h 3.2 km/h 64% 0.0 mm 0 W/m2
03:13 15.2 °C 8.4 °C 1022.4 hPa Calm   3.2 km/h 64% 0.0 mm 0 W/m2
03:18 15.3 °C 8.5 °C 1022.4 hPa Calm   1.6 km/h 64% 0.0 mm 0 W/m2
03:23 15.3 °C 8.5 °C 1022.4 hPa Calm   3.2 km/h 64% 0.0 mm 0 W/m2
03:28 15.2 °C 8.7 °C 1022.4 hPa SSW 3.2 km/h 3.2 km/h 65% 0.0 mm 0 W/m2
03:33 15.2 °C 8.7 °C 1022.4 hPa Calm   3.2 km/h 65% 0.0 mm 0 W/m2
03:38 15.1 °C 8.6 °C 1022.4 hPa Calm   1.6 km/h 65% 0.0 mm 0 W/m2
03:43 14.9 °C 8.4 °C 1022.4 hPa Calm   1.6 km/h 65% 0.0 mm 0 W/m2
03:48 14.9 °C 8.6 °C 1022.4 hPa SW 1.4 km/h 4.8 km/h 66% 0.0 mm 0 W/m2
03:53 15 °C 8.5 °C 1022.4 hPa NNW 1.4 km/h 3.2 km/h 65% 0.0 mm 0 W/m2
03:58 15 °C 8.5 °C 1022.4 hPa West 1.4 km/h 3.2 km/h 65% 0.0 mm 0 W/m2
04:03 15.2 °C 8.7 °C 1022.4 hPa SW 1.4 km/h 3.2 km/h 65% 0.0 mm 0 W/m2
04:08 15.3 °C 8.5 °C 1022.4 hPa NW 3.2 km/h 3.2 km/h 64% 0.0 mm 0 W/m2
04:13 15.3 °C 8.8 °C 1022.4 hPa WNW 1.4 km/h 3.2 km/h 65% 0.0 mm 0 W/m2
04:18 15.3 °C 8.5 °C 1022.0 hPa Calm   1.6 km/h 64% 0.0 mm 0 W/m2
04:23 15.3 °C 8.5 °C 1022.0 hPa Calm   3.2 km/h 64% 0.0 mm 0 W/m2
04:28 15.2 °C 8.4 °C 1022.0 hPa WNW 3.2 km/h 4.8 km/h 64% 0.0 mm 0 W/m2
04:33 15.3 °C 8.3 °C 1022.0 hPa West 1.4 km/h 4.8 km/h 63% 0.0 mm 0 W/m2
04:38 15.4 °C 8.6 °C 1022.0 hPa Calm   3.2 km/h 64% 0.0 mm 0 W/m2
04:43 15.3 °C 8.5 °C 1022.0 hPa NW 1.4 km/h 1.6 km/h 64% 0.0 mm 0 W/m2
04:48 15.2 °C 8.4 °C 1022.0 hPa Calm   3.2 km/h 64% 0.0 mm 0 W/m2
04:53 15.2 °C 8.7 °C 1021.7 hPa West 3.2 km/h 4.8 km/h 65% 0.0 mm 0 W/m2
04:58 15.2 °C 8.4 °C 1022.0 hPa NE 1.4 km/h 6.4 km/h 64% 0.0 mm 0 W/m2
05:04 15.2 °C 8.4 °C 1021.7 hPa NW 1.4 km/h 3.2 km/h 64% 0.0 mm 0 W/m2
05:09 15.3 °C 8.8 °C 1022.0 hPa NW 1.4 km/h 4.8 km/h 65% 0.0 mm 0 W/m2
05:14 15.1 °C 8.6 °C 1021.7 hPa NW 1.4 km/h 1.6 km/h 65% 0.0 mm 0 W/m2
05:19 14.9 °C 8.6 °C 1021.7 hPa Calm   3.2 km/h 66% 0.0 mm 0 W/m2
05:24 14.7 °C 8.6 °C 1021.7 hPa SW 3.2 km/h 3.2 km/h 67% 0.0 mm 0 W/m2
05:29 14.6 °C 8.5 °C 1021.7 hPa NE 1.4 km/h 3.2 km/h 67% 0.0 mm 0 W/m2
05:34 14.4 °C 8.6 °C 1021.7 hPa NE 1.4 km/h 1.6 km/h 68% 0.0 mm 0 W/m2
05:39 14.4 °C 8.6 °C 1021.7 hPa East 1.4 km/h 3.2 km/h 68% 0.0 mm 0 W/m2
05:44 14.5 °C 8.4 °C 1021.7 hPa Calm   1.6 km/h 67% 0.0 mm 0 W/m2
05:49 14.6 °C 8.5 °C 1021.7 hPa Calm   1.6 km/h 67% 0.0 mm 5 W/m2
05:54 14.6 °C 8.5 °C 1021.7 hPa Calm     67% 0.0 mm 7 W/m2
05:59 14.5 °C 8.4 °C 1021.7 hPa Calm   4.8 km/h 67% 0.0 mm 9 W/m2
06:04 14.5 °C 8.4 °C 1021.7 hPa ENE 1.4 km/h 3.2 km/h 67% 0.0 mm 11 W/m2
06:10 14.5 °C 8.4 °C 1021.7 hPa Calm   1.6 km/h 67% 0.0 mm 16 W/m2
06:15 14.6 °C 8.5 °C 1021.7 hPa Calm   3.2 km/h 67% 0.0 mm 19 W/m2
06:20 14.6 °C 8.5 °C 1021.7 hPa West 1.4 km/h 1.6 km/h 67% 0.0 mm 23 W/m2
06:25 14.6 °C 8.5 °C 1021.7 hPa West 1.4 km/h 1.6 km/h 67% 0.0 mm 23 W/m2
06:30 14.6 °C 8.5 °C 1021.7 hPa Calm   3.2 km/h 67% 0.0 mm 23 W/m2
06:35 14.6 °C 8.8 °C 1021.7 hPa West 1.4 km/h 3.2 km/h 68% 0.0 mm 25 W/m2
06:40 14.6 °C 9 °C 1021.7 hPa West 1.4 km/h 3.2 km/h 69% 0.0 mm 25 W/m2
06:45 14.7 °C 8.9 °C 1021.7 hPa NW 1.4 km/h 1.6 km/h 68% 0.0 mm 25 W/m2
06:50 14.7 °C 8.6 °C 1022.0 hPa NNW 1.4 km/h 1.6 km/h 67% 0.0 mm 26 W/m2
06:55 14.8 °C 8.5 °C 1022.0 hPa Calm   1.6 km/h 66% 0.0 mm 30 W/m2
07:00 14.9 °C 8.6 °C 1022.0 hPa NE 1.4 km/h 1.6 km/h 66% 0.0 mm 33 W/m2
07:06 14.9 °C 8.6 °C 1022.0 hPa Calm   1.6 km/h 66% 0.0 mm 37 W/m2
07:11 15 °C 8.7 °C 1022.0 hPa NNE 1.4 km/h 3.2 km/h 66% 0.0 mm 44 W/m2
07:16 15.1 °C 8.6 °C 1022.0 hPa NNE 1.4 km/h 1.6 km/h 65% 0.0 mm 46 W/m2
07:21 15.2 °C 8.7 °C 1022.0 hPa Calm   3.2 km/h 65% 0.0 mm 47 W/m2
07:26 15.2 °C 8.7 °C 1022.0 hPa ENE 3.2 km/h 4.8 km/h 65% 0.0 mm 49 W/m2
07:31 15.4 °C 8.6 °C 1022.0 hPa Calm   1.6 km/h 64% 0.0 mm 51 W/m2
07:36 15.5 °C 8.7 °C 1022.0 hPa North 3.2 km/h 4.8 km/h 64% 0.0 mm 51 W/m2
07:41 15.6 °C 8.8 °C 1022.0 hPa Calm   4.8 km/h 64% 0.0 mm 53 W/m2
07:46 15.7 °C 8.9 °C 1022.0 hPa Calm   3.2 km/h 64% 0.0 mm 60 W/m2
07:51 15.8 °C 9 °C 1022.0 hPa Calm   4.8 km/h 64% 0.0 mm 98 W/m2
07:56 15.9 °C 9.1 °C 1022.0 hPa Calm   1.6 km/h 64% 0.0 mm 151 W/m2
08:01 16.1 °C 9.1 °C 1022.0 hPa Calm   1.6 km/h 63% 0.0 mm 148 W/m2
08:06 16.3 °C 9.5 °C 1022.0 hPa East 3.2 km/h 3.2 km/h 64% 0.0 mm 218 W/m2
08:11 16.6 °C 9.3 °C 1022.0 hPa Calm     62% 0.0 mm 276 W/m2
08:16 16.9 °C 9.6 °C 1022.0 hPa NNW 1.4 km/h 1.6 km/h 62% 0.0 mm 278 W/m2
08:21 17.2 °C 9.6 °C 1022.0 hPa Calm   1.6 km/h 61% 0.0 mm 295 W/m2
08:26 17.6 °C 9.7 °C 1022.0 hPa WNW 4.8 km/h 4.8 km/h 60% 0.0 mm 176 W/m2
08:31 17.8 °C 9.7 °C 1022.0 hPa Calm     59% 0.0 mm 90 W/m2
08:36 17.9 °C 9.8 °C 1022.0 hPa NE 1.4 km/h 1.6 km/h 59% 0.0 mm 86 W/m2
08:41 18.3 °C 9.6 °C 1022.0 hPa NE 1.4 km/h 1.6 km/h 57% 0.0 mm 90 W/m2
08:46 18.4 °C 10 °C 1022.0 hPa Calm   1.6 km/h 58% 0.0 mm 90 W/m2
08:52 18.8 °C 9.8 °C 1022.0 hPa Calm   1.6 km/h 56% 0.0 mm 90 W/m2
08:57 18.9 °C 9.9 °C 1022.0 hPa Calm   1.6 km/h 56% 0.0 mm 86 W/m2
09:02 19.2 °C 9.7 °C 1022.0 hPa ESE 1.4 km/h 1.6 km/h 54% 0.0 mm 88 W/m2
09:07 19.3 °C 10 °C 1022.0 hPa East 3.2 km/h 4.8 km/h 55% 0.0 mm 88 W/m2
09:12 19.4 °C 10.1 °C 1022.0 hPa East 1.4 km/h 3.2 km/h 55% 0.0 mm 86 W/m2
09:17 19.4 °C 9.9 °C 1022.0 hPa East 1.4 km/h 3.2 km/h 54% 0.0 mm 149 W/m2
09:22 19.4 °C 9.9 °C 1022.0 hPa SSE 1.4 km/h 1.6 km/h 54% 0.0 mm 315 W/m2
09:27 19.6 °C 10 °C 1022.0 hPa Calm   4.8 km/h 54% 0.0 mm 427 W/m2
09:32 19.8 °C 9.9 °C 1021.7 hPa ENE 6.4 km/h 6.4 km/h 53% 0.0 mm 471 W/m2
09:37 19.9 °C 10 °C 1021.7 hPa Calm   4.8 km/h 53% 0.0 mm 478 W/m2
09:42 20.2 °C 10.6 °C 1021.7 hPa ENE 1.4 km/h 1.6 km/h 54% 0.0 mm 515 W/m2
09:47 20.2 °C 10.3 °C 1021.7 hPa NE 1.4 km/h 8 km/h 53% 0.0 mm 550 W/m2
09:52 20.3 °C 10.1 °C 1021.7 hPa North 3.2 km/h 8 km/h 52% 0.0 mm 568 W/m2
09:57 20.4 °C 10.5 °C 1021.7 hPa ENE 1.4 km/h 3.2 km/h 53% 0.0 mm 582 W/m2
10:02 20.8 °C 10.6 °C 1021.7 hPa NE 1.4 km/h 6.4 km/h 52% 0.0 mm 606 W/m2
10:07 21 °C 10.5 °C 1021.7 hPa Calm   4.8 km/h 51% 0.0 mm 594 W/m2
10:12 21.1 °C 10.9 °C 1021.7 hPa NE 3.2 km/h 6.4 km/h 52% 0.0 mm 105 W/m2
Juneau County Weather
Compliments of Weather Underground - 2 mb